2016-04-20 00:05:35 r, 17.05m,0000000012Hz,0000036450c,0000000.079s, 023.5C,00002191
2016-04-20 00:15:35 r, 17.19m,0000000011Hz,0000041302c,0000000.090s, 023.5C,00002191
2016-04-20 00:25:36 r, 17.14m,0000000011Hz,0000039214c,0000000.085s, 023.5C,00002191
2016-04-20 00:35:35 r, 17.13m,0000000012Hz,0000039001c,0000000.085s, 023.8C,00002191
2016-04-20 00:45:35 r, 17.05m,0000000012Hz,0000036373c,0000000.079s, 023.8C,00002191
2016-04-20 00:55:35 r, 17.37m,0000000010Hz,0000048658c,0000000.106s, 023.8C,00002191
2016-04-20 01:05:35 r, 17.22m,0000000011Hz,0000042453c,0000000.092s, 023.8C,00002191
2016-04-20 01:15:35 r, 17.22m,0000000011Hz,0000042724c,0000000.093s, 023.8C,00002191
2016-04-20 01:25:35 r, 17.42m,0000000009Hz,0000050900c,0000000.110s, 023.8C,00002191
2016-04-20 01:35:35 r, 17.49m,0000000008Hz,0000054496c,0000000.118s, 023.8C,00002191
2016-04-20 01:45:35 r, 17.42m,0000000009Hz,0000051072c,0000000.111s, 024.1C,00002191
2016-04-20 01:55:35 r, 17.33m,0000000010Hz,0000046755c,0000000.101s, 024.1C,00002191
2016-04-20 02:05:35 r, 17.38m,0000000009Hz,0000048925c,0000000.106s, 024.1C,00002191
2016-04-20 02:15:35 r, 17.33m,0000000010Hz,0000046837c,0000000.102s, 024.1C,00002191
2016-04-20 02:25:35 r, 17.38m,0000000010Hz,0000048987c,0000000.106s, 023.8C,00002191
2016-04-20 02:35:35 r, 17.49m,0000000009Hz,0000054741c,0000000.119s, 023.8C,00002191
2016-04-20 02:45:35 r, 17.81m,0000000006Hz,0000073321c,0000000.159s, 023.8C,00002191
2016-04-20 02:55:35 r, 18.06m,0000000005Hz,0000091182c,0000000.198s, 023.5C,00002191
2016-04-20 03:05:35 r, 18.03m,0000000005Hz,0000089465c,0000000.194s, 023.5C,00002191
2016-04-20 03:15:35 r, 18.12m,0000000005Hz,0000097025c,0000000.211s, 023.5C,00002191
2016-04-20 03:25:35 r, 18.35m,0000000004Hz,0000120040c,0000000.261s, 023.5C,00002191
2016-04-20 03:35:35 r, 18.70m,0000000003Hz,0000165133c,0000000.358s, 023.5C,00002191
2016-04-20 03:45:35 r, 18.84m,0000000002Hz,0000186987c,0000000.406s, 023.5C,00002191
2016-04-20 03:55:36 r, 18.84m,0000000002Hz,0000187158c,0000000.406s, 023.2C,00002191
2016-04-20 04:05:35 r, 18.88m,0000000003Hz,0000193904c,0000000.421s, 023.2C,00002191
2016-04-20 04:15:35 r, 18.96m,0000000002Hz,0000210088c,0000000.456s, 023.2C,00002191
2016-04-20 04:25:36 r, 19.13m,0000000002Hz,0000244733c,0000000.531s, 022.8C,00002191
2016-04-20 04:35:35 r, 19.18m,0000000001Hz,0000255370c,0000000.554s, 022.8C,00002191
2016-04-20 04:45:35 r, 18.98m,0000000002Hz,0000212060c,0000000.460s, 022.8C,00002191
2016-04-20 04:55:36 r, 18.98m,0000000002Hz,0000214771c,0000000.466s, 022.5C,00002191
2016-04-20 05:05:35 r, 19.09m,0000000002Hz,0000235324c,0000000.511s, 022.5C,00002191
2016-04-20 05:15:35 r, 18.78m,0000000003Hz,0000177631c,0000000.385s, 022.5C,00002191
2016-04-20 05:25:35 r, 18.02m,0000000005Hz,0000088324c,0000000.192s, 022.5C,00002191
2016-04-20 05:35:35 r, 16.64m,0000000018Hz,0000024809c,0000000.054s, 022.5C,00002191
2016-04-20 05:45:35 r, 14.87m,0000000093Hz,0000004893c,0000000.011s, 022.2C,00002191
2016-04-20 05:55:35 r, 12.95m,0000000560Hz,0000000000c,0000000.000s, 022.2C,00002191
2016-04-20 06:05:36 r, 11.16m,0000002904Hz,0000000000c,0000000.000s, 022.2C,00002191
2016-04-20 06:15:35 r, 09.52m,0000013163Hz,0000000000c,0000000.000s, 022.2C,00002191
2016-04-20 06:25:35 r, 08.38m,0000037584Hz,0000000000c,0000000.000s, 021.9C,00002191
2016-04-20 06:35:35 r, 07.34m,0000097397Hz,0000000000c,0000000.000s, 022.2C,00002191
2016-04-20 06:45:35 r, 06.66m,0000182804Hz,0000000000c,0000000.000s, 021.9C,00002191
2016-04-20 06:55:35 r, 06.16m,0000291986Hz,0000000000c,0000000.000s, 021.9C,00002191
2016-04-20 07:05:35 r, 00.00m,0000488709Hz,0000000000c,0000000.000s, 021.9C,00002191
2016-04-20 07:15:35 r, 00.00m,0000576590Hz,0000000000c,0000000.000s, 022.2C,00002191
2016-04-20 07:25:35 r, 00.00m,0000595640Hz,0000000000c,0000000.000s, 021.9C,00002191
2016-04-20 07:35:35 r, 00.00m,0000595574Hz,0000000000c,0000000.000s, 022.2C,00002191
2016-04-20 07:45:35 r, 00.00m,0000595595Hz,0000000000c,0000000.000s, 022.5C,00002191
2016-04-20 07:55:35 r, 00.00m,0000595520Hz,0000000000c,0000000.000s, 022.5C,00002191
2016-04-20 08:05:35 r, 00.00m,0000595622Hz,0000000000c,0000000.000s, 022.8C,00002191
2016-04-20 08:15:35 r, 00.00m,0000595448Hz,0000000000c,0000000.000s, 023.2C,00002191
2016-04-20 08:25:35 r, 00.00m,0000595454Hz,0000000000c,0000000.000s, 022.8C,00002191
2016-04-20 08:35:35 r, 00.00m,0000595541Hz,0000000000c,0000000.000s, 022.8C,00002191
2016-04-20 08:45:35 r, 00.00m,0000595506Hz,0000000000c,0000000.000s, 023.2C,00002191
2016-04-20 08:55:35 r, 00.00m,0000595490Hz,0000000000c,0000000.000s, 022.8C,00002191
2016-04-20 09:05:35 r, 00.00m,0000595422Hz,0000000000c,0000000.000s, 023.2C,00002191
2016-04-20 09:15:35 r, 00.00m,0000595568Hz,0000000000c,0000000.000s, 023.2C,00002191
2016-04-20 09:25:35 r, 00.00m,0000595486Hz,0000000000c,0000000.000s, 023.5C,00002191
2016-04-20 09:35:37 r, 00.00m,0000595452Hz,0000000000c,0000000.000s, 023.2C,00002191
2016-04-20 09:45:35 r, 00.00m,0000595410Hz,0000000000c,0000000.000s, 023.8C,00002191
2016-04-20 09:55:35 r, 00.00m,0000595335Hz,0000000000c,0000000.000s, 023.8C,00002191
2016-04-20 10:05:35 r, 00.00m,0000595385Hz,0000000000c,0000000.000s, 023.8C,00002191
2016-04-20 10:15:35 r, 00.00m,0000595363Hz,0000000000c,0000000.000s, 024.1C,00002191
2016-04-20 10:25:35 r, 00.00m,0000595313Hz,0000000000c,0000000.000s, 024.1C,00002191
2016-04-20 10:35:35 r, 00.00m,0000595396Hz,0000000000c,0000000.000s, 024.4C,00002191
2016-04-20 10:45:35 r, 00.00m,0000595250Hz,0000000000c,0000000.000s, 024.4C,00002191
2016-04-20 10:55:35 r, 00.00m,0000595250Hz,0000000000c,0000000.000s, 024.8C,00002191
2016-04-20 11:05:36 r, 00.00m,0000595193Hz,0000000000c,0000000.000s, 025.4C,00002191
2016-04-20 11:15:35 r, 00.00m,0000595181Hz,0000000000c,0000000.000s, 026.1C,00002191
2016-04-20 11:25:35 r, 00.00m,0000595133Hz,0000000000c,0000000.000s, 026.4C,00002191
2016-04-20 11:35:35 r, 00.00m,0000595143Hz,0000000000c,0000000.000s, 026.7C,00002191
2016-04-20 11:45:35 r, 00.00m,0000595168Hz,0000000000c,0000000.000s, 026.7C,00002191
2016-04-20 11:55:35 r, 00.00m,0000595112Hz,0000000000c,0000000.000s, 027.0C,00002191
2016-04-20 12:05:36 r, 00.00m,0000594918Hz,0000000000c,0000000.000s, 027.7C,00002191
2016-04-20 12:15:35 r, 00.00m,0000594838Hz,0000000000c,0000000.000s, 028.6C,00002191
2016-04-20 12:25:35 r, 00.00m,0000594903Hz,0000000000c,0000000.000s, 029.0C,00002191
2016-04-20 12:35:36 r, 00.00m,0000594744Hz,0000000000c,0000000.000s, 029.6C,00002191
2016-04-20 12:45:35 r, 00.00m,0000594554Hz,0000000000c,0000000.000s, 031.2C,00002191
2016-04-20 12:55:35 r, 00.00m,0000594294Hz,0000000000c,0000000.000s, 032.8C,00002191
2016-04-20 13:05:35 r, 00.00m,0000594052Hz,0000000000c,0000000.000s, 035.1C,00002191
2016-04-20 13:15:35 r, 00.00m,0000594176Hz,0000000000c,0000000.000s, 035.1C,00002191
2016-04-20 13:25:35 r, 00.00m,0000594078Hz,0000000000c,0000000.000s, 035.7C,00002191
2016-04-20 13:35:35 r, 00.00m,0000594232Hz,0000000000c,0000000.000s, 034.8C,00002191
2016-04-20 13:45:35 r, 00.00m,0000594062Hz,0000000000c,0000000.000s, 035.4C,00002191
2016-04-20 13:55:35 r, 00.00m,0000594135Hz,0000000000c,0000000.000s, 035.1C,00002191
2016-04-20 14:05:36 r, 00.00m,0000594070Hz,0000000000c,0000000.000s, 035.7C,00002191
2016-04-20 14:15:35 r, 00.00m,0000594047Hz,0000000000c,0000000.000s, 036.0C,00002191
2016-04-20 14:25:35 r, 00.00m,0000593729Hz,0000000000c,0000000.000s, 037.7C,00002191
2016-04-20 14:35:36 r, 00.00m,0000593482Hz,0000000000c,0000000.000s, 039.6C,00002191
2016-04-20 14:45:36 r, 00.00m,0000593611Hz,0000000000c,0000000.000s, 039.0C,00002191
2016-04-20 14:55:35 r, 00.00m,0000593673Hz,0000000000c,0000000.000s, 038.6C,00002191
2016-04-20 15:05:35 r, 00.00m,0000593619Hz,0000000000c,0000000.000s, 038.3C,00002191
2016-04-20 15:15:35 r, 00.00m,0000593853Hz,0000000000c,0000000.000s, 037.3C,00002191
2016-04-20 15:25:35 r, 00.00m,0000593740Hz,0000000000c,0000000.000s, 038.0C,00002191
2016-04-20 15:35:35 r, 00.00m,0000593783Hz,0000000000c,0000000.000s, 038.6C,00002191
2016-04-20 15:45:35 r, 00.00m,0000593524Hz,0000000000c,0000000.000s, 040.2C,00002191
2016-04-20 15:55:35 r, 00.00m,0000593400Hz,0000000000c,0000000.000s, 041.2C,00002191
2016-04-20 16:05:35 r, 00.00m,0000593454Hz,0000000000c,0000000.000s, 040.6C,00002191
2016-04-20 16:15:36 r, 00.00m,0000593539Hz,0000000000c,0000000.000s, 040.9C,00002191
2016-04-20 16:25:35 r, 00.00m,0000593527Hz,0000000000c,0000000.000s, 040.6C,00002191
2016-04-20 16:35:35 r, 00.00m,0000593448Hz,0000000000c,0000000.000s, 040.9C,00002191
2016-04-20 16:45:35 r, 00.00m,0000593475Hz,0000000000c,0000000.000s, 041.2C,00002191
2016-04-20 16:55:35 r, 00.00m,0000593483Hz,0000000000c,0000000.000s, 040.6C,00002191
2016-04-20 17:05:36 r, 00.00m,0000593644Hz,0000000000c,0000000.000s, 039.6C,00002191
2016-04-20 17:15:36 r, 00.00m,0000593740Hz,0000000000c,0000000.000s, 038.6C,00002191
2016-04-20 17:25:35 r, 00.00m,0000593671Hz,0000000000c,0000000.000s, 039.3C,00002191
2016-04-20 17:35:35 r, 00.00m,0000593715Hz,0000000000c,0000000.000s, 039.3C,00002191
2016-04-20 17:45:35 r, 00.00m,0000593833Hz,0000000000c,0000000.000s, 038.6C,00002191
2016-04-20 17:55:35 r, 00.00m,0000593853Hz,0000000000c,0000000.000s, 038.6C,00002191
2016-04-20 18:05:35 r, 00.00m,0000593806Hz,0000000000c,0000000.000s, 038.3C,00002191
2016-04-20 18:15:35 r, 00.00m,0000593864Hz,0000000000c,0000000.000s, 038.3C,00002191
2016-04-20 18:25:35 r, 00.00m,0000593887Hz,0000000000c,0000000.000s, 037.7C,00002191
2016-04-20 18:35:35 r, 00.00m,0000593941Hz,0000000000c,0000000.000s, 037.0C,00002191
2016-04-20 18:45:35 r, 00.00m,0000594096Hz,0000000000c,0000000.000s, 036.4C,00002191
2016-04-20 18:55:35 r, 00.00m,0000594167Hz,0000000000c,0000000.000s, 035.7C,00002191
2016-04-20 19:05:37 r, 00.00m,0000594270Hz,0000000000c,0000000.000s, 035.1C,00002191
2016-04-20 19:15:35 r, 00.00m,0000594320Hz,0000000000c,0000000.000s, 034.8C,00002191
2016-04-20 19:25:35 r, 00.00m,0000594514Hz,0000000000c,0000000.000s, 034.1C,00002191
2016-04-20 19:35:37 r, 00.00m,0000594585Hz,0000000000c,0000000.000s, 033.1C,00002191
2016-04-20 19:45:36 r, 00.00m,0000594693Hz,0000000000c,0000000.000s, 032.2C,00002191
2016-04-20 19:55:36 r, 00.00m,0000444551Hz,0000000000c,0000000.000s, 031.9C,00002191
2016-04-20 20:05:35 r, 00.00m,0000409906Hz,0000000000c,0000000.000s, 031.2C,00002191
2016-04-20 20:15:35 r, 06.49m,0000215288Hz,0000000000c,0000000.000s, 031.2C,00002191
2016-04-20 20:25:36 r, 07.25m,0000106089Hz,0000000000c,0000000.000s, 030.6C,00002191
2016-04-20 20:35:36 r, 08.22m,0000043717Hz,0000000000c,0000000.000s, 029.9C,00002191
2016-04-20 20:45:35 r, 09.59m,0000012331Hz,0000000000c,0000000.000s, 029.6C,00002191
2016-04-20 20:55:36 r, 11.97m,0000001382Hz,0000000000c,0000000.000s, 029.0C,00002191
2016-04-20 21:05:38 r, 13.86m,0000000242Hz,0000000000c,0000000.000s, 028.6C,00002191
2016-04-20 21:15:35 r, 16.71m,0000000018Hz,0000026394c,0000000.057s, 028.3C,00002191
2016-04-20 21:25:36 r, 17.09m,0000000012Hz,0000037796c,0000000.082s, 028.6C,00002191
2016-04-20 21:35:35 r, 17.25m,0000000011Hz,0000043655c,0000000.095s, 028.3C,00002191
2016-04-20 21:45:35 r, 17.52m,0000000008Hz,0000055943c,0000000.121s, 028.3C,00002191
2016-04-20 21:55:36 r, 17.98m,0000000005Hz,0000085283c,0000000.185s, 028.3C,00002191
2016-04-20 22:05:35 r, 17.97m,0000000006Hz,0000084899c,0000000.184s, 028.0C,00002191
2016-04-20 22:15:35 r, 17.93m,0000000006Hz,0000081484c,0000000.177s, 028.0C,00002191
2016-04-20 22:25:36 r, 17.44m,0000000009Hz,0000052110c,0000000.113s, 028.0C,00002191
2016-04-20 22:35:36 r, 17.67m,0000000007Hz,0000064318c,0000000.140s, 028.0C,00002191
2016-04-20 22:45:36 r, 18.48m,0000000004Hz,0000135310c,0000000.294s, 028.3C,00002191
2016-04-20 22:55:35 r, 18.14m,0000000005Hz,0000098865c,0000000.215s, 027.7C,00002191
2016-04-20 23:05:35 r, 18.17m,0000000005Hz,0000101829c,0000000.221s, 027.0C,00002191
2016-04-20 23:15:36 r, 18.63m,0000000003Hz,0000155579c,0000000.338s, 026.4C,00002191
2016-04-20 23:25:36 r, 18.20m,0000000004Hz,0000104669c,0000000.227s, 025.4C,00002191
2016-04-20 23:35:35 r, 17.78m,0000000007Hz,0000071302c,0000000.155s, 023.8C,00002191
2016-04-20 23:45:37 r, 17.90m,0000000006Hz,0000079753c,0000000.173s, 023.2C,00002191
2016-04-20 23:55:36 r, 17.87m,0000000006Hz,0000077074c,0000000.167s, 023.2C,00002191
